Weather in Taza

Russia / Republic of Buryatia     54°52′32″N   111°09′35″E
temp.,
°C
wind,
m/s
gust,
m/s
humid.,
%
clouds,
%
prec.,
mm/h
press.,
hPa
HPBL,
m
9 may, sun
sun923:00+1n22641 0.0 101144
02:00−1n21735 0.0 101123
05:00−2nnw117997 0.0 101211
08:00+3s115582 0.0 1011453
11:00+7s2140100 0.0 10081517
14:00+9s2233100 0.1 10072097
17:00+9nne2138100 0.3 10061774
20:00+5n1153100 0.4 100819
10 may, mon
mon1023:00+2n226781 0.0 101031
02:00+1n2368100 0.0 101157
05:000n227497 0.0 101139
08:00+7nne124540 0.0 1009677
11:00+12ese113090 0.2 10072277
14:00+13nne2127100 0.4 10062552
17:00+8w3448100 0.4 1008919
20:00+6n225468 0.6 101035
11 may, tue
tue1123:00+2nne1175100 0.0 101315
02:000nnw109126 0.0 101426
05:00−1n119146 0.0 101410
08:00+4ssw116853 0.0 1013539
11:00+8ssw235396 0.4 10111275
14:00+11wsw134295 1.7 10091544
17:00+11wnw3433100 0.3 10072243
20:00+6nnw345218 0.3 100980
12 may, wed
wed1223:00+2n337898 0.0 101260
02:00+1n239383 0.3 101399
05:00−1n019293 0.1 101413
08:00+3s126870 0.2 1012872
11:00+7sw253993 0.4 10092117
14:00+8nw5622100 0.6 10083143
17:00+8nw552268 0.0 10082709
20:00+4nw253795 0.0 1010286
13 may, thu
thu1323:00−1n34584 0.0 101364
02:00−2n3484100 0.0 101489
05:00−2n237799 0.0 101463
08:00+3n244191 0.1 10131399
11:00+6n3426100 0.1 10112769
14:00+7n4420100 0.1 10103318
17:00+7n4523100 0.0 10102813
20:00+3n23383 0.0 101347